Year,Month,Day,Hour,Minute,Value (Times are PST for windspeed in km/hr)
2011,01,14,00,00,1.50
2011,01,14,00,01,1.30
2011,01,14,00,02,1.70
2011,01,14,00,03,3.00
2011,01,14,00,04,4.00
2011,01,14,00,05,1.60
2011,01,14,00,06,1.10
2011,01,14,00,07,0.60
2011,01,14,00,08,1.00
2011,01,14,00,09,1.00
2011,01,14,00,10,0.20
2011,01,14,00,11,0.20
2011,01,14,00,12,0.00
2011,01,14,00,13,0.20
2011,01,14,00,14,0.00
2011,01,14,00,15,0.00
2011,01,14,00,16,0.00
2011,01,14,00,17,0.30
2011,01,14,00,18,0.70
2011,01,14,00,19,5.50
2011,01,14,00,20,2.70
2011,01,14,00,21,1.40
2011,01,14,00,22,0.20
2011,01,14,00,23,0.20
2011,01,14,00,24,0.20
2011,01,14,00,25,0.30
2011,01,14,00,26,3.90
2011,01,14,00,27,2.20
2011,01,14,00,28,0.50
2011,01,14,00,29,0.20
2011,01,14,00,30,0.70
2011,01,14,00,31,0.30
2011,01,14,00,32,0.00
2011,01,14,00,33,0.00
2011,01,14,00,34,0.00
2011,01,14,00,35,0.60
2011,01,14,00,36,0.60
2011,01,14,00,37,0.70
2011,01,14,00,38,0.00
2011,01,14,00,39,0.10
2011,01,14,00,40,0.10
2011,01,14,00,41,0.10
2011,01,14,00,42,0.60
2011,01,14,00,43,1.60
2011,01,14,00,44,3.00
2011,01,14,00,45,0.20
2011,01,14,00,46,0.10
2011,01,14,00,47,0.00
2011,01,14,00,48,0.00
2011,01,14,00,49,0.00
2011,01,14,00,50,3.50
2011,01,14,00,51,0.20
2011,01,14,00,52,1.30
2011,01,14,00,53,2.70
2011,01,14,00,54,1.40
2011,01,14,00,55,3.60
2011,01,14,00,56,2.60
2011,01,14,00,57,1.40
2011,01,14,00,58,1.90
2011,01,14,00,59,6.20
2011,01,14,01,00,4.30
2011,01,14,01,01,4.80
2011,01,14,01,02,5.90
2011,01,14,01,03,2.10
2011,01,14,01,04,3.80
2011,01,14,01,05,5.60
2011,01,14,01,06,4.90
2011,01,14,01,07,1.80
2011,01,14,01,08,4.30
2011,01,14,01,09,5.60
2011,01,14,01,10,2.60
2011,01,14,01,11,4.70
2011,01,14,01,12,4.90
2011,01,14,01,13,5.50
2011,01,14,01,14,3.50
2011,01,14,01,15,6.00
2011,01,14,01,16,2.20
2011,01,14,01,17,3.60
2011,01,14,01,18,1.70
2011,01,14,01,19,7.00
2011,01,14,01,20,5.30
2011,01,14,01,21,4.40
2011,01,14,01,22,3.50
2011,01,14,01,23,4.50
2011,01,14,01,24,2.40
2011,01,14,01,25,4.50
2011,01,14,01,26,7.50
2011,01,14,01,27,9.30
2011,01,14,01,28,7.40
2011,01,14,01,29,3.00
2011,01,14,01,30,3.40
2011,01,14,01,31,6.00
2011,01,14,01,32,6.40
2011,01,14,01,33,7.30
2011,01,14,01,34,2.80
2011,01,14,01,35,3.50
2011,01,14,01,36,1.60
2011,01,14,01,37,5.80
2011,01,14,01,38,7.80
2011,01,14,01,39,4.70
2011,01,14,01,40,7.20
2011,01,14,01,41,6.00
2011,01,14,01,42,3.70
2011,01,14,01,43,4.00
2011,01,14,01,44,3.60
2011,01,14,01,45,4.50
2011,01,14,01,46,4.50
2011,01,14,01,47,6.40
2011,01,14,01,48,5.80
2011,01,14,01,49,4.60
2011,01,14,01,50,4.30
2011,01,14,01,51,6.00
2011,01,14,01,52,5.90
2011,01,14,01,53,6.20
2011,01,14,01,54,4.70
2011,01,14,01,55,6.10
2011,01,14,01,56,3.20
2011,01,14,01,57,4.90
2011,01,14,01,58,3.20
2011,01,14,01,59,5.40
2011,01,14,02,00,4.40
2011,01,14,02,01,5.10
2011,01,14,02,02,3.90
2011,01,14,02,03,1.90
2011,01,14,02,04,6.00
2011,01,14,02,05,2.80
2011,01,14,02,06,4.50
2011,01,14,02,07,2.20
2011,01,14,02,08,3.40
2011,01,14,02,09,1.80
2011,01,14,02,10,3.60
2011,01,14,02,11,2.40
2011,01,14,02,12,3.40
2011,01,14,02,13,5.50
2011,01,14,02,14,7.50
2011,01,14,02,15,3.30
2011,01,14,02,16,3.10
2011,01,14,02,17,1.40
2011,01,14,02,18,4.80
2011,01,14,02,19,5.60
2011,01,14,02,20,5.50
2011,01,14,02,21,2.60
2011,01,14,02,22,1.00
2011,01,14,02,23,1.90
2011,01,14,02,24,4.70
2011,01,14,02,25,2.90
2011,01,14,02,26,2.70
2011,01,14,02,27,0.20
2011,01,14,02,28,1.40
2011,01,14,02,29,0.60
2011,01,14,02,30,1.20
2011,01,14,02,31,3.30
2011,01,14,02,32,1.90
2011,01,14,02,33,1.90
2011,01,14,02,34,2.60
2011,01,14,02,35,0.90
2011,01,14,02,36,2.60
2011,01,14,02,37,1.70
2011,01,14,02,38,3.90
2011,01,14,02,39,2.30
2011,01,14,02,40,1.70
2011,01,14,02,41,1.00
2011,01,14,02,42,1.00
2011,01,14,02,43,2.70
2011,01,14,02,44,1.90
2011,01,14,02,45,1.10
2011,01,14,02,46,1.10
2011,01,14,02,47,0.60
2011,01,14,02,48,0.60
2011,01,14,02,49,0.00
2011,01,14,02,50,0.00
2011,01,14,02,51,1.30
2011,01,14,02,52,0.20
2011,01,14,02,53,0.00
2011,01,14,02,54,0.00
2011,01,14,02,55,0.00
2011,01,14,02,56,1.70
2011,01,14,02,57,1.30
2011,01,14,02,58,3.00
2011,01,14,02,59,1.80
2011,01,14,03,00,0.00
2011,01,14,03,01,0.00
2011,01,14,03,02,0.00
2011,01,14,03,03,0.70
2011,01,14,03,04,4.30
2011,01,14,03,05,3.80
2011,01,14,03,06,2.50
2011,01,14,03,07,0.60
2011,01,14,03,08,1.20
2011,01,14,03,09,3.30
2011,01,14,03,10,2.20
2011,01,14,03,11,0.60
2011,01,14,03,12,1.60
2011,01,14,03,13,2.10
2011,01,14,03,14,0.30
2011,01,14,03,15,1.40
2011,01,14,03,16,0.40
2011,01,14,03,17,0.50
2011,01,14,03,18,1.30
2011,01,14,03,19,1.90
2011,01,14,03,20,1.20
2011,01,14,03,21,0.30
2011,01,14,03,22,1.90
2011,01,14,03,23,0.00
2011,01,14,03,24,1.10
2011,01,14,03,25,1.40
2011,01,14,03,26,2.10
2011,01,14,03,27,0.10
2011,01,14,03,28,0.20
2011,01,14,03,29,0.00
2011,01,14,03,30,0.00
2011,01,14,03,31,0.00
2011,01,14,03,32,0.00
2011,01,14,03,33,0.00
2011,01,14,03,34,0.00
2011,01,14,03,35,0.00
2011,01,14,03,36,0.00
2011,01,14,03,37,0.00
2011,01,14,03,38,0.00
2011,01,14,03,39,0.00
2011,01,14,03,40,0.00
2011,01,14,03,41,0.00
2011,01,14,03,42,0.00
2011,01,14,03,43,0.00
2011,01,14,03,44,0.00
2011,01,14,03,45,0.00
2011,01,14,03,46,0.00
2011,01,14,03,47,0.00
2011,01,14,03,48,0.00
2011,01,14,03,49,0.00
2011,01,14,03,50,0.00
2011,01,14,03,51,0.00
2011,01,14,03,52,0.00
2011,01,14,03,53,0.00
2011,01,14,03,54,0.00
2011,01,14,03,55,0.00
2011,01,14,03,56,0.00
2011,01,14,03,57,0.00
2011,01,14,03,58,0.00
2011,01,14,03,59,0.00
2011,01,14,04,00,0.00
2011,01,14,04,01,0.00
2011,01,14,04,02,0.00
2011,01,14,04,03,0.00
2011,01,14,04,04,0.00
2011,01,14,04,05,0.00
2011,01,14,04,06,0.00
2011,01,14,04,07,0.00
2011,01,14,04,08,0.00
2011,01,14,04,09,0.00
2011,01,14,04,10,0.00
2011,01,14,04,11,0.00
2011,01,14,04,12,0.00
2011,01,14,04,13,0.00
2011,01,14,04,14,0.00
2011,01,14,04,15,0.00
2011,01,14,04,16,0.00
2011,01,14,04,17,0.00
2011,01,14,04,18,0.00
2011,01,14,04,19,0.00
2011,01,14,04,20,0.00
2011,01,14,04,21,0.00
2011,01,14,04,22,0.00
2011,01,14,04,23,0.00
2011,01,14,04,24,0.00
2011,01,14,04,25,0.00
2011,01,14,04,26,0.00
2011,01,14,04,27,0.00
2011,01,14,04,28,0.00
2011,01,14,04,29,0.00
2011,01,14,04,30,0.00
2011,01,14,04,31,0.00
2011,01,14,04,32,0.00
2011,01,14,04,33,0.00
2011,01,14,04,34,0.00
2011,01,14,04,35,0.00
2011,01,14,04,36,0.00
2011,01,14,04,37,0.00
2011,01,14,04,38,0.00
2011,01,14,04,39,0.00
2011,01,14,04,40,0.00
2011,01,14,04,41,0.00
2011,01,14,04,42,0.00
2011,01,14,04,43,0.00
2011,01,14,04,44,0.00
2011,01,14,04,45,0.00
2011,01,14,04,46,0.00
2011,01,14,04,47,0.00
2011,01,14,04,48,0.00
2011,01,14,04,49,0.00
2011,01,14,04,50,0.00
2011,01,14,04,51,0.00
2011,01,14,04,52,0.00
2011,01,14,04,53,0.00
2011,01,14,04,54,0.00
2011,01,14,04,55,0.00
2011,01,14,04,56,0.00
2011,01,14,04,57,0.00
2011,01,14,04,58,0.00
2011,01,14,04,59,0.00
2011,01,14,05,00,0.00
2011,01,14,05,01,0.00
2011,01,14,05,02,0.00
2011,01,14,05,03,0.00
2011,01,14,05,04,0.00
2011,01,14,05,05,0.00
2011,01,14,05,06,0.00
2011,01,14,05,07,0.00
2011,01,14,05,08,0.00
2011,01,14,05,09,0.00
2011,01,14,05,10,0.00
2011,01,14,05,11,0.00
2011,01,14,05,12,0.00
2011,01,14,05,13,0.00
2011,01,14,05,14,0.00
2011,01,14,05,15,0.00
2011,01,14,05,16,0.00
2011,01,14,05,17,0.00
2011,01,14,05,18,0.00
2011,01,14,05,19,0.00
2011,01,14,05,20,0.00
2011,01,14,05,21,0.00
2011,01,14,05,22,0.00
2011,01,14,05,23,0.00
2011,01,14,05,24,0.00
2011,01,14,05,25,0.00
2011,01,14,05,26,0.00
2011,01,14,05,27,0.00
2011,01,14,05,28,0.00
2011,01,14,05,29,0.00
2011,01,14,05,30,0.00
2011,01,14,05,31,0.00
2011,01,14,05,32,0.00
2011,01,14,05,33,0.00
2011,01,14,05,34,0.00
2011,01,14,05,35,0.00
2011,01,14,05,36,0.00
2011,01,14,05,37,0.00
2011,01,14,05,38,0.00
2011,01,14,05,39,0.00
2011,01,14,05,40,0.00
2011,01,14,05,41,0.00
2011,01,14,05,42,0.00
2011,01,14,05,43,0.00
2011,01,14,05,44,0.00
2011,01,14,05,45,0.00
2011,01,14,05,46,0.00
2011,01,14,05,47,0.00
2011,01,14,05,48,0.00
2011,01,14,05,49,0.00
2011,01,14,05,50,0.10
2011,01,14,05,51,0.00
2011,01,14,05,52,0.00
2011,01,14,05,53,0.00
2011,01,14,05,54,0.00
2011,01,14,05,55,0.10
2011,01,14,05,56,1.30
2011,01,14,05,57,0.80
2011,01,14,05,58,0.20
2011,01,14,05,59,0.20
2011,01,14,06,00,1.40
2011,01,14,06,01,0.00
2011,01,14,06,02,0.20
2011,01,14,06,03,0.00
2011,01,14,06,04,0.40
2011,01,14,06,05,0.20
2011,01,14,06,06,0.80
2011,01,14,06,07,0.20
2011,01,14,06,08,0.00
2011,01,14,06,09,0.00
2011,01,14,06,10,0.00
2011,01,14,06,11,0.00
2011,01,14,06,12,0.00
2011,01,14,06,13,0.00
2011,01,14,06,14,0.00
2011,01,14,06,15,0.00
2011,01,14,06,16,0.00
2011,01,14,06,17,0.00
2011,01,14,06,18,0.00
2011,01,14,06,19,0.00
2011,01,14,06,20,0.00
2011,01,14,06,21,0.00
2011,01,14,06,22,0.00
2011,01,14,06,23,0.00
2011,01,14,06,24,1.20
2011,01,14,06,25,1.90
2011,01,14,06,26,0.30
2011,01,14,06,27,0.00
2011,01,14,06,28,0.20
2011,01,14,06,29,1.50
2011,01,14,06,30,0.20
2011,01,14,06,31,0.00
2011,01,14,06,32,0.40
2011,01,14,06,33,2.30
2011,01,14,06,34,0.20
2011,01,14,06,35,0.10
2011,01,14,06,36,0.00
2011,01,14,06,37,0.00
2011,01,14,06,38,0.00
2011,01,14,06,39,0.00
2011,01,14,06,40,0.70
2011,01,14,06,41,0.00
2011,01,14,06,42,0.00
2011,01,14,06,43,0.00
2011,01,14,06,44,0.00
2011,01,14,06,45,0.00
2011,01,14,06,46,0.00
2011,01,14,06,47,0.00
2011,01,14,06,48,0.00
2011,01,14,06,49,0.00
2011,01,14,06,50,0.00
2011,01,14,06,51,0.00
2011,01,14,06,52,0.00
2011,01,14,06,53,0.00
2011,01,14,06,54,0.00
2011,01,14,06,55,0.00
2011,01,14,06,56,0.00
2011,01,14,06,57,0.00
2011,01,14,06,58,0.00
2011,01,14,06,59,0.00
2011,01,14,07,00,0.00
2011,01,14,07,01,0.00
2011,01,14,07,02,0.00
2011,01,14,07,03,0.00
2011,01,14,07,04,0.00
2011,01,14,07,05,0.00
2011,01,14,07,06,0.00
2011,01,14,07,07,0.00
2011,01,14,07,08,0.00
2011,01,14,07,09,0.20
2011,01,14,07,10,0.60
2011,01,14,07,11,0.20
2011,01,14,07,12,1.10
2011,01,14,07,13,0.00
2011,01,14,07,14,0.00
2011,01,14,07,15,0.00
2011,01,14,07,16,0.50
2011,01,14,07,17,0.00
2011,01,14,07,18,0.00
2011,01,14,07,19,0.00
2011,01,14,07,20,1.00
2011,01,14,07,21,0.50
2011,01,14,07,22,0.00
2011,01,14,07,23,0.00
2011,01,14,07,24,0.00
2011,01,14,07,25,0.00
2011,01,14,07,26,0.00
2011,01,14,07,27,0.00
2011,01,14,07,28,0.00
2011,01,14,07,29,0.00
2011,01,14,07,30,0.00
2011,01,14,07,31,0.00
2011,01,14,07,32,0.20
2011,01,14,07,33,0.20
2011,01,14,07,34,0.90
2011,01,14,07,35,0.00
2011,01,14,07,36,0.10
2011,01,14,07,37,0.10
2011,01,14,07,38,0.10
2011,01,14,07,39,0.00
2011,01,14,07,40,0.00
2011,01,14,07,41,0.00
2011,01,14,07,42,0.00
2011,01,14,07,43,0.40
2011,01,14,07,44,0.10
2011,01,14,07,45,0.20
2011,01,14,07,46,0.60
2011,01,14,07,47,0.90
2011,01,14,07,48,0.00
2011,01,14,07,49,0.00
2011,01,14,07,50,0.00
2011,01,14,07,51,0.40
2011,01,14,07,52,0.30
2011,01,14,07,53,0.40
2011,01,14,07,54,0.00
2011,01,14,07,55,0.00
2011,01,14,07,56,0.00
2011,01,14,07,57,0.00
2011,01,14,07,58,0.00
2011,01,14,07,59,0.00
2011,01,14,08,00,0.00
2011,01,14,08,01,0.00
2011,01,14,08,02,0.00
2011,01,14,08,03,0.00
2011,01,14,08,04,0.00
2011,01,14,08,05,0.00
2011,01,14,08,06,0.00
2011,01,14,08,07,0.00
2011,01,14,08,08,0.00
2011,01,14,08,09,0.70
2011,01,14,08,10,0.20
2011,01,14,08,11,0.20
2011,01,14,08,12,0.00
2011,01,14,08,13,0.00
2011,01,14,08,14,0.00
2011,01,14,08,15,0.30
2011,01,14,08,16,1.90
2011,01,14,08,17,0.70
2011,01,14,08,18,0.00
2011,01,14,08,19,0.00
2011,01,14,08,20,0.00
2011,01,14,08,21,0.00
2011,01,14,08,22,0.00
2011,01,14,08,23,0.00
2011,01,14,08,24,0.10
2011,01,14,08,25,0.00
2011,01,14,08,26,0.00
2011,01,14,08,27,0.00
2011,01,14,08,28,0.00
2011,01,14,08,29,0.00
2011,01,14,08,30,0.00
2011,01,14,08,31,0.00
2011,01,14,08,32,0.00
2011,01,14,08,33,0.00
2011,01,14,08,34,0.00
2011,01,14,08,35,0.00
2011,01,14,08,36,0.00
2011,01,14,08,37,0.00
2011,01,14,08,38,0.00
2011,01,14,08,39,0.10
2011,01,14,08,40,1.50
2011,01,14,08,41,1.30
2011,01,14,08,42,0.00
2011,01,14,08,43,0.00
2011,01,14,08,44,0.00
2011,01,14,08,45,0.00
2011,01,14,08,46,0.00
2011,01,14,08,47,0.00
2011,01,14,08,48,0.00
2011,01,14,08,49,0.00
2011,01,14,08,50,0.00
2011,01,14,08,51,0.00
2011,01,14,08,52,0.00
2011,01,14,08,53,0.00
2011,01,14,08,54,0.00
2011,01,14,08,55,0.20
2011,01,14,08,56,0.10
2011,01,14,08,57,0.00
2011,01,14,08,58,0.00
2011,01,14,08,59,0.00
2011,01,14,09,00,0.00
2011,01,14,09,01,0.00
2011,01,14,09,02,0.00
2011,01,14,09,03,0.00
2011,01,14,09,04,0.00
2011,01,14,09,05,0.00
2011,01,14,09,06,0.00
2011,01,14,09,07,0.00
2011,01,14,09,08,0.00
2011,01,14,09,09,0.00
2011,01,14,09,10,0.00
2011,01,14,09,11,0.00
2011,01,14,09,12,0.00
2011,01,14,09,13,0.00
2011,01,14,09,14,0.00
2011,01,14,09,15,0.20
2011,01,14,09,16,0.10
2011,01,14,09,17,0.00
2011,01,14,09,18,0.00
2011,01,14,09,19,0.00
2011,01,14,09,20,0.00
2011,01,14,09,21,0.00
2011,01,14,09,22,0.00
2011,01,14,09,23,0.00
2011,01,14,09,24,0.00
2011,01,14,09,25,0.00
2011,01,14,09,26,0.00
2011,01,14,09,27,0.00
2011,01,14,09,28,0.00
2011,01,14,09,29,0.00
2011,01,14,09,30,0.00
2011,01,14,09,31,0.00
2011,01,14,09,32,0.00
2011,01,14,09,35,0.00
2011,01,14,09,36,0.00
2011,01,14,09,37,0.00
2011,01,14,09,38,0.00
2011,01,14,09,39,0.00
2011,01,14,09,40,0.00
2011,01,14,09,41,0.00
2011,01,14,09,42,0.10
2011,01,14,09,43,0.00
2011,01,14,09,44,0.00
2011,01,14,09,45,0.00
2011,01,14,09,46,0.00
2011,01,14,09,47,0.00
2011,01,14,09,48,0.00
2011,01,14,09,49,0.00
2011,01,14,09,50,0.00
2011,01,14,09,51,0.00
2011,01,14,09,52,0.00
2011,01,14,09,53,0.00
2011,01,14,09,54,0.00
2011,01,14,09,55,0.00
2011,01,14,09,56,0.00
2011,01,14,09,57,0.00
2011,01,14,09,58,0.00
2011,01,14,09,59,0.00
2011,01,14,10,00,0.00
2011,01,14,10,01,0.00
2011,01,14,10,02,0.00
2011,01,14,10,03,0.00
2011,01,14,10,04,0.00
2011,01,14,10,05,0.00
2011,01,14,10,06,0.00
2011,01,14,10,07,0.00
2011,01,14,10,08,0.00
2011,01,14,10,09,0.00
2011,01,14,10,10,0.00
2011,01,14,10,11,0.00
2011,01,14,10,12,0.00
2011,01,14,10,13,0.00
2011,01,14,10,14,0.00
2011,01,14,10,15,0.00
2011,01,14,10,16,0.00
2011,01,14,10,17,0.00
2011,01,14,10,18,0.00
2011,01,14,10,19,0.00
2011,01,14,10,20,0.00
2011,01,14,10,21,0.00
2011,01,14,10,22,0.00
2011,01,14,10,23,0.00
2011,01,14,10,24,0.00
2011,01,14,10,25,0.00
2011,01,14,10,26,0.00
2011,01,14,10,27,0.00
2011,01,14,10,28,0.00
2011,01,14,10,29,0.00
2011,01,14,10,30,0.00
2011,01,14,10,31,0.00
2011,01,14,10,32,0.00
2011,01,14,10,33,0.00
2011,01,14,10,34,0.00
2011,01,14,10,35,0.00
2011,01,14,10,36,0.20
2011,01,14,10,37,0.60
2011,01,14,10,38,0.60
2011,01,14,10,39,0.00
2011,01,14,10,40,0.00
2011,01,14,10,41,0.30
2011,01,14,10,42,0.60
2011,01,14,10,43,1.70
2011,01,14,10,44,0.00
2011,01,14,10,45,0.00
2011,01,14,10,46,1.00
2011,01,14,10,47,0.00
2011,01,14,10,48,0.00
2011,01,14,10,49,0.70
2011,01,14,10,50,1.40
2011,01,14,10,51,0.30
2011,01,14,10,52,0.20
2011,01,14,10,53,0.00
2011,01,14,10,54,0.00
2011,01,14,10,55,1.00
2011,01,14,10,56,0.00
2011,01,14,10,57,1.80
2011,01,14,10,58,1.70
2011,01,14,10,59,1.00
2011,01,14,11,00,0.00
2011,01,14,11,01,1.20
2011,01,14,11,02,2.20
2011,01,14,11,03,0.80
2011,01,14,11,04,1.10
2011,01,14,11,05,0.90
2011,01,14,11,06,2.30
2011,01,14,11,07,2.30
2011,01,14,11,08,1.60
2011,01,14,11,09,2.30
2011,01,14,11,10,3.00
2011,01,14,11,11,3.30
2011,01,14,11,12,1.70
2011,01,14,11,13,1.70
2011,01,14,11,14,3.50
2011,01,14,11,15,2.20
2011,01,14,11,16,1.90
2011,01,14,11,17,2.30
2011,01,14,11,18,2.50
2011,01,14,11,19,2.80
2011,01,14,11,20,2.70
2011,01,14,11,21,4.90
2011,01,14,11,22,6.00
2011,01,14,11,23,6.50
2011,01,14,11,24,3.40
2011,01,14,11,25,3.50
2011,01,14,11,26,1.70
2011,01,14,11,27,3.50
2011,01,14,11,28,4.30
2011,01,14,11,29,3.70
2011,01,14,11,30,5.60
2011,01,14,11,31,4.10
2011,01,14,11,32,4.20
2011,01,14,11,33,5.60
2011,01,14,11,34,5.90
2011,01,14,11,35,7.00
2011,01,14,11,36,6.80
2011,01,14,11,37,7.80
2011,01,14,11,38,6.80
2011,01,14,11,39,5.10
2011,01,14,11,40,6.10
2011,01,14,11,41,9.70
2011,01,14,11,42,9.10
2011,01,14,11,43,8.10
2011,01,14,11,44,8.90
2011,01,14,11,45,6.20
2011,01,14,11,46,12.20
2011,01,14,11,47,9.10
2011,01,14,11,48,6.00
2011,01,14,11,49,5.70
2011,01,14,11,50,6.40
2011,01,14,11,51,12.80
2011,01,14,11,52,12.70
2011,01,14,11,53,9.30
2011,01,14,11,54,6.90
2011,01,14,11,55,9.20
2011,01,14,11,56,8.80
2011,01,14,11,57,7.90
2011,01,14,11,58,10.10
2011,01,14,11,59,5.50
2011,01,14,12,00,6.90
2011,01,14,12,01,6.10
2011,01,14,12,02,8.30
2011,01,14,12,03,5.60
2011,01,14,12,04,8.00
2011,01,14,12,05,6.90
2011,01,14,12,06,9.00
2011,01,14,12,07,9.30
2011,01,14,12,08,10.50
2011,01,14,12,09,8.20
2011,01,14,12,10,8.00
2011,01,14,12,11,8.50
2011,01,14,12,12,8.90
2011,01,14,12,13,8.90
2011,01,14,12,14,8.30
2011,01,14,12,15,9.30
2011,01,14,12,16,5.20
2011,01,14,12,17,6.80
2011,01,14,12,18,7.00
2011,01,14,12,19,8.00
2011,01,14,12,20,7.40
2011,01,14,12,21,8.50
2011,01,14,12,22,7.60
2011,01,14,12,23,11.00
2011,01,14,12,24,8.90
2011,01,14,12,25,7.80
2011,01,14,12,26,11.30
2011,01,14,12,27,9.50
2011,01,14,12,28,10.00
2011,01,14,12,29,8.00
2011,01,14,12,30,8.40
2011,01,14,12,31,10.40
2011,01,14,12,32,7.20
2011,01,14,12,33,7.20
2011,01,14,12,34,5.90
2011,01,14,12,35,9.10
2011,01,14,12,36,8.50
2011,01,14,12,37,6.80
2011,01,14,12,38,7.20
2011,01,14,12,39,7.90
2011,01,14,12,40,7.80
2011,01,14,12,41,9.30
2011,01,14,12,42,9.50
2011,01,14,12,43,8.00
2011,01,14,12,44,6.90
2011,01,14,12,45,6.40
2011,01,14,12,46,7.90
2011,01,14,12,47,9.90
2011,01,14,12,48,5.30
2011,01,14,12,49,8.70
2011,01,14,12,50,7.80
2011,01,14,12,51,7.00
2011,01,14,12,52,8.90
2011,01,14,12,53,7.90
2011,01,14,12,54,5.40
2011,01,14,12,55,7.00
2011,01,14,12,56,6.80
2011,01,14,12,57,9.50
2011,01,14,12,58,9.00
2011,01,14,12,59,8.70
2011,01,14,13,00,5.50
2011,01,14,13,01,8.50
2011,01,14,13,02,9.00
2011,01,14,13,03,6.80
2011,01,14,13,04,7.30
2011,01,14,13,05,5.90
2011,01,14,13,06,9.10
2011,01,14,13,07,7.60
2011,01,14,13,08,7.50
2011,01,14,13,09,6.30
2011,01,14,13,10,6.30
2011,01,14,13,11,7.90
2011,01,14,13,12,8.60
2011,01,14,13,13,6.50
2011,01,14,13,14,5.20
2011,01,14,13,15,10.00
2011,01,14,13,16,7.50
2011,01,14,13,17,8.90
2011,01,14,13,18,10.20
2011,01,14,13,19,6.80
2011,01,14,13,20,8.40
2011,01,14,13,21,8.10
2011,01,14,13,22,8.10
2011,01,14,13,23,6.90
2011,01,14,13,24,6.10
2011,01,14,13,25,6.40
2011,01,14,13,26,5.40
2011,01,14,13,27,6.70
2011,01,14,13,28,8.70
2011,01,14,13,29,4.60
2011,01,14,13,30,5.60
2011,01,14,13,31,7.00
2011,01,14,13,32,8.30
2011,01,14,13,33,8.30
2011,01,14,13,34,4.90
2011,01,14,13,35,5.60
2011,01,14,13,36,6.20
2011,01,14,13,37,7.00
2011,01,14,13,38,8.00
2011,01,14,13,39,5.20
2011,01,14,13,40,7.30
2011,01,14,13,41,9.60
2011,01,14,13,42,7.10
2011,01,14,13,43,8.50
2011,01,14,13,44,8.10
2011,01,14,13,45,11.40
2011,01,14,13,46,9.00
2011,01,14,13,47,10.90
2011,01,14,13,48,11.70
2011,01,14,13,49,11.30
2011,01,14,13,50,6.30
2011,01,14,13,51,14.60
2011,01,14,13,52,10.60
2011,01,14,13,53,8.50
2011,01,14,13,54,11.30
2011,01,14,13,55,8.10
2011,01,14,13,56,11.30
2011,01,14,13,57,6.90
2011,01,14,13,58,9.10
2011,01,14,13,59,8.20
2011,01,14,14,00,11.20
2011,01,14,14,01,8.50
2011,01,14,14,02,9.70
2011,01,14,14,03,16.00
2011,01,14,14,04,8.20
2011,01,14,14,05,8.20
2011,01,14,14,06,8.90
2011,01,14,14,07,8.80
2011,01,14,14,08,8.50
2011,01,14,14,09,7.50
2011,01,14,14,10,10.10
2011,01,14,14,11,12.70
2011,01,14,14,12,10.80
2011,01,14,14,13,10.10
2011,01,14,14,14,9.00
2011,01,14,14,15,9.40
2011,01,14,14,16,8.50
2011,01,14,14,17,9.00
2011,01,14,14,18,11.60
2011,01,14,14,19,9.50
2011,01,14,14,20,7.60
2011,01,14,14,21,6.90
2011,01,14,14,22,10.60
2011,01,14,14,23,10.70
2011,01,14,14,24,11.00
2011,01,14,14,25,10.50
2011,01,14,14,26,8.90
2011,01,14,14,27,11.70
2011,01,14,14,28,8.90
2011,01,14,14,29,14.60
2011,01,14,14,30,8.90
2011,01,14,14,31,9.30
2011,01,14,14,32,7.80
2011,01,14,14,33,8.20
2011,01,14,14,34,8.70
2011,01,14,14,35,14.40
2011,01,14,14,36,6.20
2011,01,14,14,37,9.70
2011,01,14,14,38,8.50
2011,01,14,14,39,6.30
2011,01,14,14,40,10.50
2011,01,14,14,41,11.80
2011,01,14,14,42,5.20
2011,01,14,14,43,8.60
2011,01,14,14,44,5.40
2011,01,14,14,45,7.80
2011,01,14,14,46,10.80
2011,01,14,14,47,11.00
2011,01,14,14,48,9.90
2011,01,14,14,49,9.10
2011,01,14,14,50,8.90
2011,01,14,14,51,9.10
2011,01,14,14,52,5.10
2011,01,14,14,53,7.90
2011,01,14,14,54,6.80
2011,01,14,14,55,7.80
2011,01,14,14,56,7.60
2011,01,14,14,57,6.40
2011,01,14,14,58,4.60
2011,01,14,14,59,8.40
2011,01,14,15,00,10.10
2011,01,14,15,01,9.70
2011,01,14,15,02,5.60
2011,01,14,15,03,6.70
2011,01,14,15,04,5.50
2011,01,14,15,05,8.20
2011,01,14,15,06,11.30
2011,01,14,15,07,11.30
2011,01,14,15,08,11.60
2011,01,14,15,09,9.40
2011,01,14,15,10,8.70
2011,01,14,15,11,7.80
2011,01,14,15,12,13.80
2011,01,14,15,13,12.20
2011,01,14,15,14,10.20
2011,01,14,15,15,11.30
2011,01,14,15,16,8.10
2011,01,14,15,17,2.80
2011,01,14,15,18,3.90
2011,01,14,15,19,7.40
2011,01,14,15,20,5.40
2011,01,14,15,21,9.10
2011,01,14,15,22,9.10
2011,01,14,15,23,5.00
2011,01,14,15,24,3.90
2011,01,14,15,25,7.60
2011,01,14,15,26,6.00
2011,01,14,15,27,12.20
2011,01,14,15,28,6.40
2011,01,14,15,29,5.50
2011,01,14,15,30,7.80
2011,01,14,15,31,13.00
2011,01,14,15,32,8.90
2011,01,14,15,33,3.90
2011,01,14,15,34,4.10
2011,01,14,15,35,5.20
2011,01,14,15,36,3.80
2011,01,14,15,37,12.20
2011,01,14,15,38,3.90
2011,01,14,15,39,5.10
2011,01,14,15,40,3.70
2011,01,14,15,41,7.70
2011,01,14,15,42,5.70
2011,01,14,15,43,3.80
2011,01,14,15,44,7.40
2011,01,14,15,45,5.10
2011,01,14,15,46,9.70
2011,01,14,15,47,5.10
2011,01,14,15,48,4.40
2011,01,14,15,49,4.60
2011,01,14,15,50,5.60
2011,01,14,15,51,10.60
2011,01,14,15,52,6.10
2011,01,14,15,53,4.70
2011,01,14,15,54,11.10
2011,01,14,15,55,4.30
2011,01,14,15,56,5.40
2011,01,14,15,57,5.40
2011,01,14,15,58,6.50
2011,01,14,15,59,5.00
2011,01,14,16,00,8.80
2011,01,14,16,01,10.40
2011,01,14,16,02,7.10
2011,01,14,16,03,4.80
2011,01,14,16,04,3.30
2011,01,14,16,05,5.70
2011,01,14,16,06,6.40
2011,01,14,16,07,6.30
2011,01,14,16,08,11.90
2011,01,14,16,09,4.80
2011,01,14,16,10,1.80
2011,01,14,16,11,8.10
2011,01,14,16,12,7.00
2011,01,14,16,13,3.30
2011,01,14,16,14,3.90
2011,01,14,16,15,10.20
2011,01,14,16,16,8.90
2011,01,14,16,17,8.50
2011,01,14,16,18,6.80
2011,01,14,16,19,10.20
2011,01,14,16,20,6.70
2011,01,14,16,21,6.60
2011,01,14,16,22,6.40
2011,01,14,16,23,12.00
2011,01,14,16,24,7.40
2011,01,14,16,25,12.50
2011,01,14,16,26,9.00
2011,01,14,16,27,9.70
2011,01,14,16,28,4.60
2011,01,14,16,29,5.80
2011,01,14,16,30,5.80
2011,01,14,16,31,8.40
2011,01,14,16,32,6.50
2011,01,14,16,33,5.60
2011,01,14,16,34,5.50
2011,01,14,16,35,1.80
2011,01,14,16,36,6.90
2011,01,14,16,37,6.30
2011,01,14,16,38,5.60
2011,01,14,16,39,3.10
2011,01,14,21,50,0.00
2011,01,14,21,51,0.00
2011,01,14,21,52,0.00
2011,01,14,21,53,1.50
2011,01,14,21,54,1.50
2011,01,14,21,55,0.60
2011,01,14,21,56,0.20
2011,01,14,21,57,0.40
2011,01,14,21,58,0.00
2011,01,14,21,59,0.40
2011,01,14,22,00,1.60
2011,01,14,22,01,0.90
2011,01,14,22,02,0.20
2011,01,14,22,03,0.70
2011,01,14,22,04,0.10
2011,01,14,22,05,0.00
2011,01,14,22,06,0.00
2011,01,14,22,07,0.00
2011,01,14,22,08,0.10
2011,01,14,22,09,0.70
2011,01,14,22,10,0.20
2011,01,14,22,11,0.10
2011,01,14,22,12,0.00
2011,01,14,22,13,0.20
2011,01,14,22,14,0.00
2011,01,14,22,15,0.00
2011,01,14,22,16,1.10
2011,01,14,22,17,0.00
2011,01,14,22,18,0.10
2011,01,14,22,19,0.00
2011,01,14,22,20,0.00
2011,01,14,22,21,0.00
2011,01,14,22,22,0.00
2011,01,14,22,23,0.00
2011,01,14,22,24,0.00
2011,01,14,22,25,0.00
2011,01,14,22,26,0.00
2011,01,14,22,27,0.00
2011,01,14,22,28,0.00
2011,01,14,22,29,5.10
2011,01,14,22,30,1.70
2011,01,14,22,31,1.30
2011,01,14,22,32,0.10
2011,01,14,22,33,0.00
2011,01,14,22,34,0.10
2011,01,14,22,35,0.10
2011,01,14,22,36,0.60
2011,01,14,22,37,0.00
2011,01,14,22,38,0.00
2011,01,14,22,39,0.20
2011,01,14,22,40,1.50
2011,01,14,22,41,0.00
2011,01,14,22,42,0.10
2011,01,14,22,43,0.00
2011,01,14,22,44,0.00
2011,01,14,22,45,0.00
2011,01,14,22,46,0.00
2011,01,14,22,47,0.10
2011,01,14,22,48,1.30
2011,01,14,22,49,1.20
2011,01,14,22,50,1.80
2011,01,14,22,51,1.00
2011,01,14,22,52,0.90
2011,01,14,22,53,0.20
2011,01,14,22,54,0.00
2011,01,14,22,55,0.00
2011,01,14,22,56,0.40
2011,01,14,22,57,0.20
2011,01,14,22,58,0.00
2011,01,14,22,59,0.10
2011,01,14,23,00,0.40
2011,01,14,23,01,0.30
2011,01,14,23,02,0.00
2011,01,14,23,03,0.00
2011,01,14,23,04,0.20
2011,01,14,23,05,1.20
2011,01,14,23,06,0.60
2011,01,14,23,07,0.10
2011,01,14,23,08,1.60
2011,01,14,23,09,0.00
2011,01,14,23,10,0.00
2011,01,14,23,11,0.00
2011,01,14,23,12,0.00
2011,01,14,23,13,0.00
2011,01,14,23,14,0.00
2011,01,14,23,15,0.00
2011,01,14,23,16,0.30